[[{"header":{"parameterUnit":"m.s-1","parameterCategory":1,"la1":30.2991,"la2":30.254,"lo1":-89.0895,"lo2":-89.0444,"dy":0.0017,"dx":0.0017,"nx":28,"ny":28,"refTime":"2024-07-27T21:00:00:Z","depth":0,"parameterNumber":2,"parameterNumberName":"U-component_of_WINDS"},"data":[0,0,0,0,0,0,0,0,0,0,0,0,0,0,0,0,0,0,0,0,0,0,0,0,0,0,0,0,0,0,0,0,0,0,0,0,0,0,0,0,0,0,0,0,0,0,0,0,0,0,0,0,0,0,0,0,0,0,0.5075,0.5076,0,0.5166,0.5168,0.5169,0.5201,0.5201,0.5201,0.5201,0.5295,0.5297,0.53,0,0,0,0,0,0,0,0,0,0,0,0,0,0.4926,0.4928,0.5075,0.5076,0.5077,0.5166,0.5168,0.5169,0.5202,0.5201,0.5201,0.52,0.5294,0.5297,0.53,0,0,0,0,0,0,0,0,0,0,0,0,0,0.5001,0.4929,0.5074,0.5104,0.5108,0.5166,0.5168,0.5169,0.5202,0.5201,0.5201,0.52,0.5293,0.5297,0.5301,0.5337,0,0,0.5314,0.5315,0,0,0,0,0,0,0,0,0.4997,0.5007,0.5099,0.5102,0.5106,0.5172,0.515,0.5225,0.5202,0.5166,0.5201,0.52,0.5254,0.5261,0.528,0.5341,0.5345,0.5314,0.5317,0.5318,0.532,0,0,0,0,0,0,0,0.4992,0.5003,0.5111,0.51,0.5104,0.5112,0.5122,0.5164,0.5212,0.5169,0.5172,0.5182,0.5256,0.5276,0.5282,0.5346,0.5314,0.5318,0.532,0.5322,0.5439,0.5439,0,0,0,0,0,0,0.4982,0.4998,0.5108,0.5114,0.5049,0.5115,0.5127,0.5151,0.5211,0.522,0.5182,0.5183,0.5269,0.5277,0.5286,0.533,0.5318,0.5322,0.5325,0.5438,0.5439,0.544,0,0,0,0,0,0,0.4978,0.4991,0.5104,0.5057,0.5072,0.5118,0.5146,0.5153,0.5173,0.5221,0.523,0.5194,0.5269,0.528,0.5323,0.5334,0.5324,0.5328,0.5438,0.5439,0.5439,0.542,0,0,0,0,0,0,0.4974,0.499,0.5005,0.5057,0.5074,0.5141,0.5147,0.5156,0.518,0.5182,0.5234,0.5242,0.5269,0.5317,0.5327,0.534,0.5331,0.5437,0.5438,0.5439,0.542,0.542,0.5421,0,0,0,0,0,0.4969,0.4996,0.5005,0.5018,0.5094,0.5141,0.5151,0.5182,0.5181,0.5196,0.5226,0.5241,0.5331,0.5321,0.5333,0.5347,0.5436,0.5438,0.5439,0.542,0.542,0.5421,0,0,0,0,0,0,0.4945,0.5004,0.5014,0.506,0.5095,0.5147,0.5167,0.5181,0.5218,0.5218,0.5254,0.5265,0.5305,0.5331,0.5318,0.5383,0.5384,0.5388,0.5366,0.5366,0.5367,0.536,0.5335,0,0,0,0,0,0.4944,0.4978,0.5028,0.5063,0.508,0.512,0.5142,0.5162,0.52,0.5216,0.525,0.5286,0.5322,0.5346,0.5382,0.5423,0.5435,0.5439,0.5439,0.5439,0.5442,0.5464,0.5466,0.5444,0.5444,0.5444,0,0,0.4945,0.4981,0.5001,0.5059,0.5089,0.5123,0.5133,0.5169,0.5194,0.5221,0.5264,0.529,0.5333,0.5375,0.5395,0.5397,0.545,0.5441,0.544,0.5443,0.5465,0.5468,0.5469,0.5445,0.5445,0.5445,0,0,0.4962,0.4994,0.5026,0.5055,0.51,0.5126,0.5133,0.5182,0.52,0.5243,0.5264,0.5294,0.5356,0.5385,0.5408,0.5434,0.5448,0.5444,0.5446,0.5467,0.5469,0.547,0.5479,0.5481,0.5447,0.5447,0.5447,0,0.4957,0.501,0.504,0.5075,0.5099,0.5124,0.5156,0.5183,0.5237,0.5253,0.5254,0.5331,0.5362,0.541,0.5416,0.5434,0.5443,0.5439,0.5466,0.5468,0.547,0.5478,0.5481,0.5446,0.5446,0.5447,0.5447,0,0.5,0.5036,0.5056,0.5107,0.5134,0.5167,0.5201,0.5225,0.5241,0.5266,0.5309,0.5346,0.539,0.5402,0.542,0.5453,0.5452,0.5459,0.5461,0.5471,0.5479,0.5483,0.5445,0.5446,0.5446,0.5446,0,0,0.5008,0.5073,0.508,0.5103,0.5152,0.518,0.5213,0.5255,0.5274,0.531,0.5338,0.5388,0.5394,0.542,0.544,0.5459,0.5475,0.5463,0.5465,0.5464,0.5512,0.5506,0.551,0.5484,0.5485,0.5485,0.5508,0,0.5032,0.5092,0.5119,0.5168,0.52,0.5223,0.5251,0.5284,0.5308,0.5339,0.5365,0.54,0.5406,0.5421,0.544,0.5469,0.5485,0.5468,0.551,0.5511,0.5499,0.5514,0.5509,0.5529,0.5512,0.5512,0.5513,0,0.5068,0.5103,0.5154,0.5198,0.5213,0.5238,0.5277,0.5306,0.5344,0.5359,0.5387,0.5406,0.544,0.5439,0.5486,0.5473,0.5492,0.5508,0.551,0.5515,0.5513,0.552,0.5536,0.5539,0.5518,0.5518,0.5517,0,0.5067,0.5127,0.5165,0.5183,0.5236,0.5253,0.5275,0.5312,0.5335,0.5369,0.5384,0.5421,0.5442,0.547,0.5498,0.5495,0.5542,0.5543,0.5556,0.5555,0.5565,0.5564,0.5585,0.5577,0.5577,0.5577,0.5577,0,0.5091,0.5121,0.5165,0.5188,0.5222,0.5252,0.5284,0.5309,0.5341,0.5368,0.539,0.5415,0.5451,0.548,0.5502,0.5537,0.5546,0.556,0.5565,0.5558,0.5556,0.5571,0.557,0.5578,0.5578,0.5577,0.5577,0,0.5097,0.5127,0.5169,0.5215,0.5227,0.525,0.5288,0.5311,0.5335,0.5369,0.5379,0.5417,0.5452,0.5483,0.553,0.5544,0.558,0.5587,0.5568,0.5571,0.5581,0.5579,0.5612,0.5617,0.5606,0.5606,0.5606,0,0.511,0.5133,0.5181,0.5201,0.5223,0.5255,0.5277,0.5307,0.533,0.5373,0.539,0.5427,0.5458,0.5513,0.5545,0.558,0.5588,0.5596,0.5593,0.5585,0.5587,0.5586,0.5588,0.5597,0.5597,0.5597,0.5597,0,0.513,0.5143,0.5176,0.5212,0.5239,0.5269,0.53,0.5315,0.535,0.5374,0.5411,0.5435,0.5482,0.5518,0.5556,0.5579,0.5593,0.5597,0.5602,0.5595,0.5582,0.5589,0.5568,0.5597,0.5597,0.5597,0.5597,0.5597,0.514,0.5161,0.5197,0.5232,0.5258,0.5285,0.5309,0.5335,0.5365,0.5406,0.5421,0.5458,0.5493,0.5546,0.5568,0.5596,0.5599,0.5606,0.5607,0.5609,0.5607,0.5577,0.5603,0.5604,0.5604,0.5604,0.5604,0,0.5161,0.5184,0.5216,0.5258,0.5284,0.5295,0.5329,0.535,0.5382,0.5413,0.5443,0.5484,0.5518,0.5551,0.5587,0.5603,0.561,0.5611,0.5611,0.5615,0.5603,0.5596,0.5605,0.5605,0.5605,0.5605,0.5605,0.5605,0.5175,0.5211,0.5228,0.5276,0.53,0.5336,0.5354,0.5379,0.5404,0.5448,0.5477,0.5498,0.5529,0.5567,0.5598,0.5607,0.5619,0.5618,0.5628,0.5617,0.5616,0.5616,0.5609,0.562,0.562,0.5638,0.5638,0.5638]},{"header":{"parameterUnit":"m.s-1","parameterCategory":1,"la1":30.2991,"la2":30.254,"lo1":-89.0895,"lo2":-89.0444,"dy":0.0017,"dx":0.0017,"nx":28,"ny":28,"refTime":"2024-07-27T21:00:00:Z","depth":0,"parameterNumber":3,"parameterNumberName":"V-component_of_WINDS"},"data":[0,0,0,0,0,0,0,0,0,0,0,0,0,0,0,0,0,0,0,0,0,0,0,0,0,0,0,0,0,0,0,0,0,0,0,0,0,0,0,0,0,0,0,0,0,0,0,0,0,0,0,0,0,0,0,0,0,0,4.6112,4.6113,0,4.6189,4.619,4.6191,4.6127,4.6124,4.6121,4.6119,4.6194,4.6198,4.6202,0,0,0,0,0,0,0,0,0,0,0,0,0,4.5904,4.5908,4.6112,4.6113,4.6114,4.6189,4.619,4.6191,4.6127,4.6124,4.6121,4.6118,4.6192,4.6197,4.6203,0,0,0,0,0,0,0,0,0,0,0,0,0,4.5989,4.5909,4.6112,4.6091,4.609,4.6189,4.619,4.6192,4.6128,4.6124,4.612,4.6116,4.619,4.6197,4.6203,4.6326,0,0,4.6224,4.6227,0,0,0,0,0,0,0,0,4.5984,4.5996,4.6093,4.6093,4.6092,4.6144,4.6144,4.6236,4.6129,4.6113,4.6119,4.6114,4.618,4.6187,4.6211,4.6329,4.6332,4.6225,4.6229,4.6232,4.6234,0,0,0,0,0,0,0,4.5978,4.5993,4.6143,4.6095,4.6094,4.6076,4.6084,4.6161,4.6168,4.6114,4.611,4.612,4.6179,4.6204,4.6212,4.6333,4.6224,4.623,4.6235,4.6237,4.6552,4.6556,0,0,0,0,0,0,4.5975,4.5988,4.614,4.6145,4.6027,4.6083,4.6092,4.6132,4.6167,4.6169,4.6124,4.6117,4.6195,4.6204,4.6214,4.6358,4.6232,4.6238,4.6242,4.6548,4.6553,4.6558,0,0,0,0,0,0,4.5971,4.5989,4.6137,4.6065,4.6083,4.6091,4.6136,4.6135,4.6161,4.6174,4.6175,4.6149,4.6192,4.6205,4.6298,4.636,4.6241,4.6247,4.6543,4.655,4.6556,4.6647,0,0,0,0,0,0,4.5965,4.5988,4.6036,4.6067,4.6087,4.6222,4.614,4.614,4.6173,4.6165,4.6198,4.6199,4.619,4.6288,4.6305,4.6367,4.6252,4.6537,4.6546,4.6554,4.6639,4.6656,4.6671,0,0,0,0,0,4.5958,4.6059,4.6039,4.6058,4.6148,4.6226,4.6237,4.6225,4.6178,4.6225,4.6233,4.6198,4.635,4.6298,4.6316,4.6381,4.6533,4.6543,4.6553,4.6632,4.6653,4.6671,0,0,0,0,0,0,4.6035,4.6063,4.6041,4.6155,4.6189,4.6215,4.6274,4.6248,4.6294,4.6285,4.6266,4.6274,4.6372,4.6386,4.6328,4.65,4.6434,4.6448,4.6488,4.6508,4.6524,4.6518,4.6258,0,0,0,0,0,4.6065,4.6128,4.6148,4.6246,4.6264,4.6267,4.63,4.6288,4.6321,4.6334,4.6349,4.6382,4.6436,4.6472,4.6524,4.664,4.6645,4.6693,4.6709,4.6722,4.6735,4.6795,4.6816,4.659,4.659,4.659,0,0,4.6128,4.6151,4.6192,4.6262,4.6287,4.635,4.6279,4.6349,4.6395,4.6344,4.6434,4.6445,4.648,4.6585,4.6631,4.6599,4.6798,4.6735,4.6745,4.675,4.6807,4.6828,4.6847,4.6597,4.6595,4.6594,0,0,4.6275,4.63,4.6384,4.6409,4.6447,4.6447,4.6467,4.6497,4.6503,4.6592,4.6555,4.6608,4.6703,4.6729,4.6754,4.6908,4.6876,4.6924,4.7009,4.7067,4.7085,4.7101,4.7154,4.7174,4.6936,4.6937,4.6937,0,4.6349,4.6444,4.643,4.6503,4.6534,4.6491,4.6574,4.6599,4.6652,4.6673,4.6636,4.6753,4.6773,4.6882,4.6919,4.6942,4.6962,4.6921,4.7084,4.71,4.7114,4.7165,4.7185,4.6942,4.6942,4.6941,4.694,0,4.6532,4.6598,4.6661,4.6713,4.6751,4.6829,4.6824,4.6864,4.6847,4.6851,4.694,4.6963,4.7017,4.7041,4.7026,4.7147,4.7126,4.7087,4.702,4.7141,4.7189,4.7208,4.695,4.6948,4.6947,4.6945,0,0,4.6732,4.6773,4.6797,4.6818,4.6856,4.6906,4.698,4.7033,4.7067,4.7103,4.7164,4.7244,4.7207,4.7236,4.7222,4.7274,4.7392,4.7228,4.7229,4.7257,4.7525,4.7554,4.7577,4.7371,4.7375,4.7378,4.7522,0,4.688,4.7011,4.6999,4.7122,4.7182,4.7141,4.7205,4.7233,4.7237,4.7287,4.7291,4.7348,4.7296,4.7312,4.7362,4.7368,4.7446,4.7357,4.7426,4.7428,4.7419,4.7602,4.7634,4.7769,4.7541,4.7544,4.7546,0,4.7071,4.7115,4.7245,4.727,4.7294,4.7353,4.7399,4.7448,4.7478,4.7477,4.7508,4.7485,4.7557,4.7489,4.7586,4.7526,4.7553,4.756,4.7565,4.7571,4.7495,4.7613,4.7812,4.7832,4.7575,4.7573,4.7571,0,4.7203,4.7293,4.7382,4.7402,4.7435,4.7476,4.7491,4.7518,4.755,4.7589,4.7609,4.7657,4.7683,4.7719,4.7708,4.766,4.7808,4.7739,4.7808,4.7808,4.7841,4.7839,4.8048,4.7859,4.7859,4.7859,4.7858,0,4.737,4.745,4.7442,4.7496,4.7584,4.7568,4.7655,4.7664,4.7687,4.7741,4.7707,4.7758,4.7741,4.7791,4.7782,4.7863,4.7875,4.7875,4.7872,4.7879,4.7879,4.7896,4.7886,4.7864,4.7863,4.7862,4.7861,0,4.7532,4.753,4.7624,4.7646,4.7653,4.7717,4.7735,4.7785,4.7786,4.7854,4.7869,4.787,4.7926,4.7919,4.7981,4.7975,4.8076,4.8061,4.8066,4.8063,4.8132,4.8125,4.8358,4.8387,4.8181,4.8183,4.8184,0,4.7639,4.77,4.7729,4.7763,4.7781,4.7836,4.7869,4.7853,4.7888,4.7925,4.797,4.8023,4.8065,4.8156,4.8161,4.8208,4.8194,4.8272,4.8201,4.8204,4.8194,4.819,4.8195,4.8286,4.8289,4.8291,4.8292,0,4.7828,4.7823,4.7872,4.792,4.7959,4.7996,4.8029,4.8058,4.8046,4.8086,4.8143,4.8175,4.8238,4.8291,4.8334,4.8347,4.8317,4.8315,4.8333,4.834,4.834,4.834,4.8104,4.8309,4.8308,4.8306,4.8306,4.8305,4.7966,4.8017,4.8045,4.8099,4.8122,4.8153,4.8201,4.8207,4.8255,4.8306,4.8293,4.8357,4.8382,4.8438,4.8455,4.8503,4.8475,4.8501,4.8508,4.8515,4.8522,4.8332,4.8511,4.8511,4.851,4.851,4.851,0,4.8152,4.8168,4.8218,4.8265,4.8307,4.8275,4.8309,4.8346,4.8403,4.843,4.8471,4.8535,4.8585,4.8593,4.864,4.8677,4.8664,4.869,4.8687,4.869,4.8546,4.8525,4.8699,4.8699,4.8699,4.8699,4.8699,4.8699,4.8255,4.8339,4.8337,4.8432,4.8446,4.8509,4.8531,4.8558,4.8579,4.8653,4.8694,4.8699,4.8718,4.8765,4.8808,4.8809,4.8827,4.8858,4.8854,4.8719,4.87,4.8682,4.8663,4.8863,4.8863,4.8993,4.8995,4.8996]}]]